TimeMST,TemperatureF,Dew PointF,Humidity,Sea Level PressureIn,VisibilityMPH,Wind Direction,Wind SpeedMPH,Gust SpeedMPH,PrecipitationIn,Events,Conditions,WindDirDegrees,DateUTC
12:53 AM,34.0,21.0,59,29.67,10.0,SSW,20.7,-,N/A,,Clear,210,2014-02-19 07:53:00
1:53 AM,37.0,19.9,50,29.62,10.0,WSW,23.0,31.1,N/A,,Clear,240,2014-02-19 08:53:00
2:53 AM,39.0,19.0,45,29.61,10.0,SW,21.9,32.2,N/A,,Clear,230,2014-02-19 09:53:00
3:53 AM,37.9,19.9,48,29.58,10.0,SW,20.7,-,N/A,,Clear,230,2014-02-19 10:53:00
4:53 AM,37.9,19.9,48,29.58,10.0,SW,23.0,28.8,N/A,,Clear,230,2014-02-19 11:53:00
5:53 AM,39.0,19.9,46,29.57,10.0,SW,20.7,-,N/A,,Clear,220,2014-02-19 12:53:00
6:53 AM,39.0,19.9,46,29.54,10.0,SSW,18.4,-,N/A,,Clear,210,2014-02-19 13:53:00
7:53 AM,39.0,21.0,49,29.53,10.0,SSW,20.7,-,N/A,,Clear,210,2014-02-19 14:53:00
8:53 AM,42.1,21.0,43,29.47,10.0,SSW,32.2,39.1,N/A,,Clear,210,2014-02-19 15:53:00
9:53 AM,44.1,23.0,43,29.49,10.0,SW,17.3,-,N/A,,Clear,220,2014-02-19 16:53:00
10:53 AM,46.0,25.0,44,29.46,10.0,WSW,19.6,28.8,N/A,,Clear,240,2014-02-19 17:53:00
11:21 AM,39.2,26.6,61,29.48,10.0,NW,33.4,46.0,N/A,,Clear,320,2014-02-19 18:21:00
11:53 AM,37.0,26.1,65,29.56,10.0,NW,29.9,44.9,N/A,,Partly Cloudy,320,2014-02-19 18:53:00
12:53 PM,37.0,21.9,54,29.57,10.0,NW,28.8,42.6,N/A,,Scattered Clouds,320,2014-02-19 19:53:00
1:53 PM,33.1,21.9,64,29.60,10.0,NNW,27.6,36.8,N/A,,Overcast,330,2014-02-19 20:53:00
2:53 PM,33.1,16.0,50,29.63,10.0,NW,25.3,34.5,0.00,,Overcast,320,2014-02-19 21:53:00
3:53 PM,34.0,14.0,44,29.62,10.0,North,16.1,20.7,N/A,,Overcast,350,2014-02-19 22:53:00
4:53 PM,33.1,17.1,52,29.65,10.0,NW,10.4,-,N/A,,Overcast,310,2014-02-19 23:53:00
5:53 PM,32.0,12.0,44,29.68,10.0,NW,16.1,25.3,N/A,,Mostly Cloudy,310,2014-02-20 00:53:00
6:53 PM,30.0,12.0,47,29.71,10.0,NW,16.1,-,N/A,,Clear,310,2014-02-20 01:53:00
7:53 PM,24.1,16.0,71,29.75,10.0,West,6.9,-,N/A,,Clear,270,2014-02-20 02:53:00
8:53 PM,28.9,10.9,47,29.74,10.0,NW,16.1,-,N/A,,Clear,310,2014-02-20 03:53:00
9:53 PM,28.0,10.9,49,29.75,10.0,WNW,13.8,-,N/A,,Partly Cloudy,300,2014-02-20 04:53:00
10:53 PM,28.9,10.0,45,29.74,10.0,WNW,15.0,24.2,N/A,,Partly Cloudy,300,2014-02-20 05:53:00
11:53 PM,28.0,10.0,47,29.79,10.0,West,12.7,-,N/A,,Clear,280,2014-02-20 06:53:00